Погода в Аккудуке

Погода в Аккудуке : погода сейчас, прогноз погоды и архив. Всё, что Вы хотите узнать о погоде в Аккудуке!

Хотите узнать прогноз погоды в Аккудуке? Тогда Вам сюда: Погода в Аккудуке

Поиск расширенной информации на нашем сайте:

Другие новости

Новости СМИ2

Главная страница сайта

Новости сайта

03.07.2017

Напоминаем, что на нашем специализированном сайте Метеоцентр.Азия вы можете получить высокодетализированные автоматические прогнозы погоды по пунктам России, СНГ и мира в авиационном формате (включающие направление и скорость ветра, видимость, явления погоды, количество и форму облачности, нижнюю и верхнюю границу облачности).

Рекомендуем: Кондиционеры Panasonic inverter

Погода в Аккудуке - сегодня

Время (UTC), дата Ветер
(°,м/с) 
Видим.   Явления Облачность Т
(°С)
Тd
(°С)
f(%) Тe
(°С)
Pmin
(гПа)
dP
(гПа)
Po
(мм)
O2
(г/м3)
Тmin Tmax R s Состояние
почвы
15 16.04.18 350 (С) 20000 м    6/6 600 м кучево-дожд. 
[Cb cap]
+14.5 -4.3 27 +15  1023.1  0.1  760  291    +16.1       
18 16.04.18 270 (З) 20000 м    1/1 600 м 
[Sc]
+9.7 -1.7 45 +8  1024.1  761  296    +16.1       
00 17.04.18 320 (СЗ) 20000 м    ясно 
+5.8 -3.6 51 +5  1024.7  0.3  761  301           
03 17.04.18 320 (СЗ) 20000 м    ясно 
+3 -3.5 62 +2  1025  1.5  762  304           
06 17.04.18 130 (ЮВ) 20000 м    ясно 
+13.7 -5 27 +15  1026.3  0.2  763  293  +1         
09 17.04.18 270 (З) 20000 м    1/1 600 м 
[Cu med, cong]
+17.5 -7.8 17 +19  1025.5  -0.7  762  289           
12 17.04.18 230 (ЮЗ) 20000 м    6/6 600 м 
[Cu med, cong]
+17.1 -6 20 +19  1024.2  -1.3  761  289           
15 17.04.18 270 (З) 20000 м    5/0 средняя 
[Ac cast]
+14.8 -4.5 26 +14  1024.2  761  291    +18.5       
18 17.04.18 270 (З) 20000 м    ясно 
+9.5 +3.7 67 +7  1026.2  1.8  762  296    +18.5       
21 17.04.18 270 (З) 20000 м    ясно 
+7.5 -3.2 47 +5  1026.7  0.5  763  300           
00 18.04.18 270 (З) 20000 м    ясно 
+5.5 +2.3 80 +5  1027.2  0.4  763  301           
06 18.04.18 050 (СВ) 20000 м    ясно 
+13 +0.7 43 +14  1028  764  294  +0         
09 18.04.18 170 (Ю) 20000 м    1/1 600 м 
[Cu hum]
+16.5 -7.8 18 +17  1020  -0.6  763  291           
12 18.04.18 200 (Ю) 20000 м    3/3 600 м 
[Cu med, cong]
+18.4 -4.3 21 +18  1024.7  -2.5  761  288           
15 18.04.18 230 (ЮЗ) 20000 м    1/1 600 м 
[Cu med, cong]
+15.5 -2.5 29 +15  1024.5  -0.3  761  291    +18.8       
18 18.04.18 280 (З) 20000 м    ясно 
+10.8 -0.4 46 +9  1024.7  761  295    +18.8       
21 18.04.18 270 (З) 20000 м    ясно 
+9.5 -0.2 51 +9  1024.3  -0.5  761  296           
00 19.04.18 230 (ЮЗ) 20000 м    ясно 
+7.8 -0.5 56 +7  1023.4  -1  760  298           
06 19.04.18 150 (ЮВ) 20000 м    10/10 1000 м 
[Sc]
+14 -2.4 32 +13  1019.4  -2.8  757  291  +2.5         
09 19.04.18 190 (Ю) 20000 м    9/0 средняя 
[As op]
+19.1 -4.4 20 +19  1016.8  -2.4  756  285           
12 19.04.18 200 (Ю) 10  20000 м    10/0 средняя 
[As op]
+19.1 -5.8 18 +19  1014.9  -1.9  754  285           
15 19.04.18 180 (Ю) 20000 м    9/0 средняя 
[As op]
+17.3 -2.7 25 +17  1016  753  286    +20       
18 19.04.18 200 (Ю) 20000 м    1/0 средняя 
[As trans]
+10.7 -4.1 35 +12  1012.6  -1.6  752  292    +20       
21 19.04.18 200 (Ю) 20000 м    ясно 
+10 -4.4 36 +10  1011.7  -1  752  293           
00 20.04.18 180 (Ю) 20000 м    ясно 
+8.5 -4.4 40 +8  1010.8  -1  751  294           
Время (UTC), дата Ветер
(°,м/с) 
Видим.   Явления Облачность Т
(°С)
Тd
(°С)
f(%) Тe
(°С)
Pmin
(гПа)
dP
(гПа)
Po
(мм)
O2
(г/м3)
Тmin Tmax R s Состояние
почвы

Для получения пояснительной информации подведите курсор к названию столбца.

ПОГОДА в Аккудуке - архив

Всё, что Вы хотите узнать о погоде в Аккудуке - удобно и подробно!

Выберите нужную дату (начиная с 1 января 2015* года) и нажмите кнопку "Найти".
Будут отображены архивные сводки погоды по пункту Аккудук, начиная с указанной даты.


Отображать данные в формате CSV (для использования в таблицах Excel)


Внимание! Наш архив погоды предназначен исключительно для личного некоммерческого использования в познавательных целях. Если Вам необходимы официальные справки о состоянии погоды (для производственных, юридических, коммерческих и т.п. целей), обращайтесь в органы Росгидромета.

*Примечание: данная дата относится к архиву по метеостанциям СССР (Россия, СНГ, Балтия).
Архив по метеостанциям Зарубежной Европы и Азии (кроме Китая) хранится 10 дней, по другим регионам земного шара (Китай, Африка, Америка, Австралия, Океания) - 1 день.

Аккудук - район местоположения метеостанции


Название, широта, долгота, высота метеостанции:
Аккудук 42.1°ш. 54.1°д. 78 м над ур. моря [Казахстан]

Дополнительная информация

В oтличие oт бoльшинства пoгoдных сайтoв мы публикуем пoдрoбную метеoинфoрмацию в детальнoм прoфессиoнальнoм фoрмате.

Характеристики температуры и влажнoсти вoздуха измеряются на высoте 2 м в тени вдали oт зданий и деревьев.
Скoрoсть ветра измеряется на высoте 10 м (на урoвне рoста челoвека скoрoсть ветра ниже в 1.5-2 раза). Если метеoстанция нахoдится в гoрoде или в лесу, тo скoрoсть ветра занижена на 2-4 м/с пo сравнению с oткрытым местoм. Скoрoсть ветра над акватoриями крупных рек и oзёр, а также на вершинах хoлмoв на 2-5 м/с выше, чем в oбычных услoвиях.
Атмoсфернoе давление в разных тoчках местнoсти мoжет значительнo oтличаться oт давления на метеoстанции, в зависимoсти oт услoвий рельефа (при пoдъёме на 10 м давление пoнижается примернo на 1 мм рт.ст.).